Weather past 2 weeks in Willemstad, Curaçao

Now
81 °F

Passing clouds.


Feels Like: 86 °F
Forecast: 77 / 86 °F
Wind: 13 mph from Southeast

Location: Hato Airport - Curacao

Current Time: Dec 21, 2014 at 10:55:05 PM

Latest Report: Dec 21, 2014 at 10:00 PM


Visibility: N/A

Pressure: 29.95 "Hg

Humidity: 84%

Dew point: 75 °F

Location of WillemstadLocation

Historic Weather in Willemstad — Graph

°F

Willemstad temperature yesterday

Maximum temperature yesterday: 88 °F (at 12:00 PM)
Minimum temperature yesterday: 79 °F (at 12:00 AM)
Average temperature yesterday: 82 °F

Past Weeks' High & Low Weather Summary

 TemperatureHumidityPressure
High90 °F (Dec 10, 1:00 PM)94% (Dec 8, 6:00 AM)30.01 "Hg (Dec 8, 6:00 AM)
Low75 °F (Dec 15, 7:00 AM)55% (Dec 16, 12:00 PM)29.80 "Hg (Dec 7, 4:00 PM)
Average83 °F76%29.90 "Hg
* Reported Dec 6 9:00 PM — Dec 21 9:00 PM, Willemstad, Weather by CustomWeather, © 2014

Note: Actual official high and low records may vary slightly from our data, if they occured in-between our weather recording intervals... More about our weather records

Advertising

Willemstad weather history for previous 24 hours

 ConditionsComfort  
Time TempWeatherWind HumidityBarometerVisibility
9:00 PM
Dec 21
82 °FPassing clouds.13 mph79%29.95 "HgN/A
8:00 PM82 °FPassing clouds.13 mph74%29.92 "HgN/A
7:00 PM82 °FPassing clouds.14 mph74%29.92 "HgN/A
6:00 PM82 °FPassing clouds.12 mph74%29.89 "HgN/A
5:00 PM84 °FPassing clouds.13 mph66%29.89 "HgN/A
4:00 PM86 °FPassing clouds.13 mph66%29.89 "HgN/A
3:00 PM88 °FPassing clouds.14 mph59%29.89 "HgN/A
2:00 PM86 °FScattered clouds.14 mph66%29.92 "HgN/A
1:00 PM86 °FScattered clouds.16 mph62%29.95 "HgN/A
12:00 PM86 °FScattered clouds.13 mph66%29.98 "HgN/A
11:00 AM86 °FScattered clouds.14 mph70%29.98 "HgN/A
10:00 AM84 °FScattered clouds.14 mph74%29.98 "HgN/A
9:00 AM84 °FScattered clouds.15 mph70%29.98 "HgN/A
8:00 AM82 °FScattered clouds.14 mph74%29.95 "HgN/A
7:00 AM81 °FPassing clouds.14 mph79%29.92 "HgN/A
6:00 AM81 °FPassing clouds.13 mph79%29.92 "HgN/A
5:00 AM81 °FPassing clouds.13 mph79%29.89 "HgN/A
4:00 AM81 °FPassing clouds.12 mph84%29.89 "HgN/A
3:00 AM81 °FPassing clouds.10 mph84%29.89 "HgN/A
2:00 AM81 °FPassing clouds.10 mph84%29.92 "HgN/A
1:00 AM81 °FPassing clouds.10 mph84%29.95 "HgN/A
12:00 AM81 °FPassing clouds.12 mph79%29.92 "HgN/A
11:00 PM
Dec 20
81 °FPassing clouds.12 mph84%29.95 "HgN/A
10:00 PM81 °FPassing clouds.14 mph79%29.92 "HgN/A
Weather by CustomWeather, © 2014

See weather overviewHow to use our weather pages